Overview Statistics Trail Chart Weather Telemetry Raw packets
 

This is the latest recevied weather packets stored in our database for station/object WX5KDM. If no packets are shown the sender has not sent any weather packets the latest 10 day(s).

<< 101 102 103 104 105 106 107 >>
Time Temp. Humidity Pressure Rain* Wind** Luminosity Snow
1787862693 32.22° C 66% 1015 hPa 0 mm - - -
1787862388 31.67° C 67% 1015 hPa 0 mm - - -
1787862084 32.22° C 65% 1014.9 hPa 0 mm - - -
1787861784 32.22° C 67% 1015.2 hPa 0 mm - - -
1787861482 32.22° C 65% 1015.2 hPa 0 mm - - -
1787861177 32.22° C 65% 1015.2 hPa 0 mm - - -
1787860871 31.67° C 68% 1015.4 hPa 0 mm - - -
1787860565 31.11° C 68% 1015.2 hPa 0 mm - - -
1787860260 31.67° C 68% 1015.5 hPa 0 mm - - -
1787859956 31.67° C 66% 1015.3 hPa 0 mm - - -
1787859651 32.22° C 68% 1015.7 hPa 0 mm - - -
1787859350 31.67° C 66% 1015.4 hPa 0 mm - - -
1787859047 32.22° C 65% 1015.7 hPa 0 mm - - -
1787858742 32.22° C 65% 1015.5 hPa 0 mm - - -
1787858438 31.67° C 65% 1015.4 hPa 0 mm - - -
1787858137 31.67° C 65% 1015.5 hPa 0 mm - - -
1787857832 31.67° C 66% 1015.4 hPa 0 mm - - -
1787857523 31.11° C 66% 1015.4 hPa 0 mm - - -
1787857222 30.56° C 70% 1015.6 hPa 0 mm - - -
1787856916 31.11° C 68% 1015.6 hPa 0 mm - - -
1787856615 31.11° C 69% 1015.7 hPa 0 mm - - -
1787856311 30.56° C 70% 1015.7 hPa 0 mm - - -
1787856011 31.11° C 68% 1015.6 hPa 0 mm - - -
1787855705 31.11° C 68% 1015.6 hPa 0 mm - - -
1787855401 31.11° C 70% 1015.7 hPa 0 mm - - -

* Rain latest hour (hover to see other rain measurements)
** Current wind speed in m/s (hover to see current wind gust speed)